Latest Weather Observations for Scherger

IDQ60801

Issued at 5:05 pm EST Tuesday 21 October 2014 (issued every 30 minutes, with the page automatically refreshed every 10 minutes)

About weather observations | Map of weather stations | Latest weather observations for QLD | Other Formats
Station Details ID: 027075 Name: SCHERGER RAAF Lat: -12.62 Lon: 142.09 Height: 39.34 m
Data from the previous 72 hours. | See also: Recent months at Scherger
Date/Time
EST
Temp
°C
App
Temp
°C
Dew
Point
Rel
Hum
%
Delta-T
°C
Wind Press
QNH
hPa
Press
MSL
hPa
Rain
since 9 am
mm
Dir
 
Spd
km/h
Gust
km/h
Spd
kts
Gust
kts
21/05:00pm 32.0 31.1 15.9 38 10.1 E 15 24 8 13 1011.6 1011.3 0.2
21/04:30pm 32.8 32.1 15.3 34 10.9 E 13 24 7 13 1011.3 1011.0 0.2
21/04:00pm 32.7 30.6 14.8 34 11.0 E 19 28 10 15 1011.2 1010.9 0.2
21/03:30pm 34.2 33.8 15.1 31 11.9 ENE 11 19 6 10 1011.1 1010.8 0.2
21/03:00pm 34.8 34.8 15.2 31 12.3 ESE 9 17 5 9 1011.4 1011.1 0.2
21/02:30pm 33.6 33.2 15.1 33 11.5 ESE 11 20 6 11 1011.5 1011.2 0.2
21/02:00pm 34.9 34.3 14.7 29 12.5 ESE 11 22 6 12 1011.8 1011.5 0.2
21/01:30pm 34.0 33.9 15.0 32 11.8 E 9 17 5 9 1012.3 1012.0 0.2
21/01:00pm - - - - - E 17 26 9 14 1013.0 1012.7 0.2
21/12:30pm 33.4 32.5 14.9 32 11.5 ESE 13 22 7 12 1013.4 1013.1 0.0
21/12:00pm 32.4 30.9 15.4 36 10.6 SE 17 32 9 17 1014.1 1013.8 0.0
21/11:30am 32.3 30.9 16.6 39 9.9 ENE 19 30 10 16 1014.6 1014.3 0.0
21/11:00am 31.1 30.9 16.7 42 9.1 E 13 24 7 13 1015.1 1014.9 0.0
21/10:30am 31.2 30.4 17.9 45 8.5 SSE 19 22 10 12 1015.4 1015.2 0.0
21/10:00am 29.8 28.6 17.6 48 7.8 SE 20 28 11 15 1015.6 1015.4 0.0
21/09:30am 29.0 29.1 18.4 52 6.8 ENE 15 26 8 14 1015.7 1015.5 0.0
21/09:00am 27.5 26.7 18.5 58 5.8 ESE 20 32 11 17 1015.8 1015.6 0.0
21/08:30am 26.8 27.8 18.6 60 5.2 ESE 11 20 6 11 1015.9 1015.7 0.0
21/08:00am 25.5 27.1 19.2 68 4.0 ESE 9 17 5 9 1015.6 1015.4 0.0
21/07:30am 23.9 25.1 18.3 71 3.5 SSE 9 13 5 7 1015.4 1015.2 0.0
21/07:00am 22.4 24.1 18.4 78 2.5 SSE 7 11 4 6 1015.1 1014.9 0.0
21/06:30am 21.1 22.6 18.1 83 1.9 S 7 9 4 5 1014.8 1014.6 0.0
21/06:00am 20.3 22.7 17.1 82 2.0 S 0 0 0 0 1014.5 1014.2 0.0
21/05:30am 20.8 23.5 17.8 83 1.9 CALM 0 0 0 0 1014.2 1013.9 0.0
21/05:00am 21.1 23.9 17.9 82 2.0 CALM 0 0 0 0 1014.0 1013.7 0.0
21/04:30am 21.1 23.8 17.7 81 2.1 SSE 0 0 0 0 1013.8 1013.5 0.0
21/04:00am 21.6 24.0 18.0 80 2.2 SE 2 7 1 4 1013.6 1013.3 0.0
21/03:30am 21.4 24.0 17.6 79 2.3 CALM 0 0 0 0 1013.5 1013.2 0.0
21/03:00am 21.9 24.7 17.9 78 2.5 CALM 0 0 0 0 1013.6 1013.3 0.0
21/02:30am 22.7 25.5 18.0 75 2.9 CALM 0 0 0 0 1013.9 1013.6 0.0
21/02:00am 23.0 25.9 18.1 74 3.1 CALM 0 0 0 0 1014.0 1013.7 0.0
21/01:30am 23.4 24.9 18.1 72 3.3 SE 7 9 4 5 1014.2 1013.9 0.0
21/01:00am 23.6 25.3 18.0 71 3.5 SE 6 9 3 5 1014.5 1014.2 0.0
21/12:30am 24.0 26.1 18.0 69 3.8 ESE 4 9 2 5 1014.7 1014.5 0.0
21/12:00am 24.3 25.7 17.8 67 4.1 ESE 7 13 4 7 1015.0 1014.8 0.0
 
Date/Time
EST
Temp
°C
App
Temp
°C
Dew
Point
Rel
Hum
%
Delta-T
°C
Wind Press
QNH
hPa
Press
MSL
hPa
Rain
since 9 am
mm
Dir
 
Spd
km/h
Gust
km/h
Spd
kts
Gust
kts
20/11:30pm 24.6 25.6 17.8 66 4.3 E 9 13 5 7 1015.1 1014.9 0.0
20/11:00pm 24.9 25.6 17.9 65 4.4 ESE 11 20 6 11 1015.2 1015.0 0.0
20/10:30pm 25.2 26.1 18.4 66 4.3 ESE 11 22 6 12 1015.0 1014.8 0.0
20/10:00pm 25.4 26.0 18.6 66 4.3 ESE 13 24 7 13 1014.8 1014.6 0.0
20/09:30pm 25.7 25.9 18.6 65 4.5 E 15 26 8 14 1014.4 1014.1 0.0
20/09:00pm 26.1 26.1 18.2 61 5.0 ESE 15 28 8 15 1014.2 1013.9 0.0
20/08:30pm 26.5 25.6 17.8 58 5.5 ESE 19 41 10 22 1013.9 1013.6 0.0
20/08:00pm 27.1 26.3 18.1 58 5.7 E 19 30 10 16 1013.5 1013.2 0.0
20/07:30pm 27.3 27.2 17.8 56 6.0 E 15 30 8 16 1013.0 1012.7 0.0
20/07:00pm 27.8 27.0 17.9 54 6.3 E 19 35 10 19 1012.9 1012.6 0.0
20/06:30pm 28.2 27.4 18.0 54 6.5 E 19 33 10 18 1012.4 1012.1 0.0
20/06:00pm 28.9 27.0 17.7 50 7.1 E 24 43 13 23 1012.0 1011.7 0.0
20/05:30pm 29.7 28.5 17.5 48 7.7 E 20 39 11 21 1011.7 1011.4 0.0
20/05:00pm 30.5 29.6 18.2 47 7.9 E 20 35 11 19 1011.3 1011.0 0.0
20/04:30pm 31.3 30.5 17.9 44 8.6 E 19 37 10 20 1011.2 1010.9 0.0
20/04:00pm 32.0 30.6 17.1 41 9.5 E 20 37 11 20 1011.2 1010.9 0.0
20/03:30pm 32.9 32.4 17.9 41 9.7 E 17 33 9 18 1011.2 1010.9 0.0
20/03:00pm 32.4 31.8 17.5 41 9.5 ESE 17 39 9 21 1011.3 1011.0 0.0
20/02:30pm 31.6 29.3 16.7 40 9.4 ESE 24 39 13 21 1011.5 1011.2 0.0
20/02:00pm 31.9 31.2 17.4 42 9.3 E 17 26 9 14 1011.7 1011.4 0.0
20/01:30pm 32.5 31.2 16.8 39 10.0 ESE 19 32 10 17 1012.1 1011.8 0.0
20/01:00pm 33.2 33.2 18.2 41 9.7 SE 15 26 8 14 1012.6 1012.3 0.0
20/12:30pm 32.0 31.1 17.8 42 9.1 ESE 19 33 10 18 1013.2 1012.9 0.0
20/12:00pm 31.4 30.9 17.7 44 8.8 E 17 30 9 16 1013.8 1013.5 0.0
20/11:30am 31.1 29.8 18.1 46 8.4 E 22 35 12 19 1014.3 1014.0 0.0
20/11:00am 30.0 29.4 18.4 49 7.5 SE 19 32 10 17 1014.8 1014.6 0.0
20/10:30am 29.6 28.8 18.1 50 7.4 SE 19 30 10 16 1015.0 1014.8 0.0
20/10:00am 29.6 28.7 18.1 50 7.4 E 20 35 11 19 1015.4 1015.2 0.0
20/09:30am 28.8 28.3 18.6 54 6.6 ESE 19 32 10 17 1015.6 1015.4 0.0
20/09:00am 28.2 27.5 18.6 56 6.2 E 20 28 11 15 1015.8 1015.6 0.0
20/08:30am 27.0 26.7 18.3 59 5.5 ESE 17 30 9 16 1015.9 1015.7 0.0
20/08:00am 26.1 25.8 18.2 61 5.0 ESE 17 26 9 14 1015.7 1015.5 0.0
20/07:30am 24.8 25.3 18.3 67 4.1 ESE 13 20 7 11 1015.6 1015.4 0.0
20/07:00am 23.7 24.8 18.1 71 3.5 SE 9 13 5 7 1015.3 1015.1 0.0
20/06:30am 22.8 23.9 18.1 75 2.9 ESE 9 15 5 8 1015.0 1014.8 0.0
20/06:00am 22.5 23.5 17.8 75 2.9 SE 9 15 5 8 1014.6 1014.3 0.0
20/05:30am 22.5 23.1 17.8 75 2.9 ESE 11 17 6 9 1014.3 1014.0 0.0
20/05:00am 22.4 23.1 18.0 76 2.7 SE 11 17 6 9 1014.0 1013.7 0.0
20/04:30am 22.0 23.0 17.8 77 2.6 SSE 9 13 5 7 1013.7 1013.4 0.0
20/04:00am 22.7 24.2 18.0 75 2.9 SE 7 15 4 8 1013.5 1013.2 0.0
20/03:30am 22.7 23.8 18.0 75 2.9 ESE 9 13 5 7 1013.4 1013.1 0.0
20/03:00am 22.6 24.0 17.9 75 2.9 ESE 7 11 4 6 1013.5 1013.2 0.0
20/02:30am 22.9 24.0 18.0 74 3.1 ESE 9 15 5 8 1013.8 1013.5 0.0
20/02:00am 22.8 23.9 17.9 74 3.1 ESE 9 13 5 7 1014.0 1013.7 0.0
20/01:30am 22.5 24.4 17.6 74 3.0 SE 4 7 2 4 1014.3 1014.0 0.0
20/01:00am 23.3 25.4 18.0 72 3.3 ESE 4 13 2 7 1014.6 1014.3 0.0
20/12:30am 23.5 25.0 17.7 70 3.6 SE 6 9 3 5 1015.0 1014.8 0.0
20/12:00am 24.0 25.1 18.0 69 3.8 ESE 9 15 5 8 1015.3 1015.1 0.0
 
Date/Time
EST
Temp
°C
App
Temp
°C
Dew
Point
Rel
Hum
%
Delta-T
°C
Wind Press
QNH
hPa
Press
MSL
hPa
Rain
since 9 am
mm
Dir
 
Spd
km/h
Gust
km/h
Spd
kts
Gust
kts
19/11:30pm 24.3 24.9 17.8 67 4.1 E 11 22 6 12 1015.6 1015.4 0.0
19/11:00pm 24.5 24.8 18.0 67 4.1 E 13 20 7 11 1015.8 1015.6 0.0
19/10:30pm 24.7 24.5 17.7 65 4.4 E 15 28 8 15 1015.8 1015.6 0.0
19/10:00pm 24.9 24.9 17.1 62 4.8 ESE 13 26 7 14 1015.8 1015.6 0.0
19/09:30pm 25.3 25.0 16.4 57 5.5 E 13 24 7 13 1015.5 1015.3 0.0
19/09:00pm 25.9 24.9 15.6 53 6.3 E 15 24 8 13 1014.9 1014.7 0.0
19/08:30pm 26.4 25.1 15.8 52 6.5 E 17 32 9 17 1014.4 1014.1 0.0
19/08:00pm 27.0 25.3 15.7 50 6.9 E 19 28 10 15 1014.0 1013.7 0.0
19/07:30pm 27.7 26.2 15.4 47 7.5 E 17 32 9 17 1013.6 1013.3 0.0
19/07:00pm 28.4 26.4 15.0 44 8.2 E 19 32 10 17 1013.1 1012.8 0.0
19/06:30pm 29.2 26.7 14.2 40 9.0 E 20 35 11 19 1012.8 1012.5 0.0
19/06:00pm 30.3 27.9 12.7 34 10.4 E 17 33 9 18 1012.3 1012.0 0.0
19/05:30pm 31.2 28.8 12.5 31 11.1 ESE 17 24 9 13 1011.9 1011.6 0.0
19/05:00pm 32.0 30.0 12.8 31 11.5 E 15 26 8 14 1011.3 1011.0 0.0
19/04:30pm 32.1 29.6 12.3 29 11.7 E 17 32 9 17 1010.9 1010.6 0.0
19/04:00pm 32.7 30.4 11.8 28 12.3 E 15 24 8 13 1010.7 1010.4 0.0
19/03:30pm 33.5 29.9 11.9 27 12.8 SE 22 33 12 18 1010.5 1010.2 0.0
19/03:00pm 33.4 31.1 11.9 27 12.7 ENE 15 26 8 14 1010.6 1010.3 0.0
19/02:30pm 33.5 29.9 11.9 27 12.8 SSE 22 35 12 19 1010.8 1010.5 0.0
19/02:00pm 33.3 30.5 11.2 26 12.9 E 17 32 9 17 1011.0 1010.7 0.0
19/01:30pm 33.4 29.1 11.9 27 12.7 SSE 26 41 14 22 1011.4 1011.1 0.0
19/01:00pm 33.4 30.5 12.4 28 12.5 E 19 35 10 19 1012.0 1011.7 0.0
19/12:30pm 32.9 29.5 12.5 29 12.2 ESE 22 39 12 21 1012.6 1012.3 0.0
19/12:00pm 32.7 29.8 12.9 30 11.9 ENE 20 30 11 16 1013.2 1012.9 0.0
19/11:30am 31.7 29.0 13.5 33 11.0 ENE 20 32 11 17 1013.8 1013.5 0.0
19/11:12am 31.3 27.0 13.1 33 10.9 ENE 28 48 15 26 1014.2 1013.9 0.0
19/11:00am 30.9 27.0 13.2 34 10.6 SE 26 32 14 17 1014.4 1014.1 0.0
19/10:30am 30.7 28.3 14.3 36 10.0 E 20 32 11 17 1014.8 1014.6 0.0
19/10:00am 29.8 27.8 15.5 42 8.8 E 20 37 11 20 1015.2 1015.0 0.0
19/09:30am 28.9 26.9 16.5 47 7.7 ENE 22 32 12 17 1015.6 1015.4 0.0
19/09:00am 28.3 27.5 17.2 51 7.0 SE 17 33 9 18 1015.6 1015.4 0.0
19/08:30am 26.8 25.8 17.6 57 5.8 E 19 32 10 17 1015.7 1015.5 0.0
19/08:00am 25.8 25.3 17.7 61 5.1 ESE 17 32 9 17 1015.7 1015.5 0.0
19/07:30am 24.3 24.9 17.8 67 4.1 ESE 11 17 6 9 1015.4 1015.2 0.0
19/07:00am 22.6 24.5 17.7 74 3.0 SE 4 9 2 5 1015.2 1015.0 0.0
19/06:30am 20.8 23.2 17.0 79 2.3 CALM 0 6 0 3 1014.9 1014.7 0.0
19/06:00am 20.6 22.5 16.8 79 2.3 SE 2 6 1 3 1014.6 1014.3 0.0
19/05:30am 20.5 22.8 16.7 79 2.3 CALM 0 0 0 0 1014.2 1013.9 0.0
19/05:00am 20.7 22.6 16.7 78 2.4 SE 2 7 1 4 1014.1 1013.8 0.0
19/04:30am 21.1 23.4 16.7 76 2.7 CALM 0 0 0 0 1014.1 1013.8 0.0
19/04:00am 21.6 23.3 17.2 76 2.7 SE 4 9 2 5 1014.0 1013.7 0.0
19/03:30am 21.5 23.5 16.9 75 2.8 SE 2 7 1 4 1013.9 1013.6 0.0
19/03:00am 21.5 23.4 16.7 74 2.9 SE 2 6 1 3 1013.9 1013.6 0.0
19/02:30am 21.6 23.8 16.6 73 3.0 CALM 0 0 0 0 1014.1 1013.8 0.0
19/02:00am 21.9 24.1 16.4 71 3.3 CALM 0 0 0 0 1014.4 1014.1 0.0
19/01:30am 22.6 24.2 16.9 70 3.5 SE 4 9 2 5 1014.7 1014.5 0.0
19/01:00am 22.9 24.0 16.7 68 3.8 ESE 6 11 3 6 1014.9 1014.7 0.0
19/12:30am 23.4 24.5 16.7 66 4.1 ESE 6 11 3 6 1015.4 1015.2 0.0
19/12:00am 23.7 24.6 16.7 65 4.3 ESE 7 11 4 6 1015.6 1015.4 0.0
 
Date/Time
EST
Temp
°C
App
Temp
°C
Dew
Point
Rel
Hum
%
Delta-T
°C
Wind Press
QNH
hPa
Press
MSL
hPa
Rain
since 9 am
mm
Dir
 
Spd
km/h
Gust
km/h
Spd
kts
Gust
kts
18/11:30pm 24.1 24.7 16.9 64 4.4 ESE 9 17 5 9 1015.8 1015.6 0.0
18/11:00pm 24.3 24.4 16.6 62 4.7 ESE 11 20 6 11 1016.1 1015.9 0.0
18/10:30pm 24.6 23.9 16.3 60 5.1 ESE 15 24 8 13 1016.1 1015.9 0.0
18/10:00pm 24.8 23.8 15.7 57 5.5 ESE 15 26 8 14 1016.0 1015.8 0.0
18/09:30pm 25.2 24.2 15.5 55 5.9 E 15 24 8 13 1015.7 1015.5 0.0
18/09:00pm 25.6 25.0 15.6 54 6.1 E 13 20 7 11 1015.3 1015.1 0.0
18/08:30pm 26.0 25.7 15.4 52 6.4 ESE 11 19 6 10 1015.0 1014.8 0.0
18/08:00pm 26.6 25.4 15.0 49 7.0 E 15 24 8 13 1014.4 1014.1 0.0
18/07:30pm 27.3 26.5 15.0 47 7.5 E 13 22 7 12 1014.0 1013.7 0.0
18/07:00pm 28.0 26.5 14.3 43 8.2 E 15 28 8 15 1013.6 1013.3 0.0
18/06:30pm 28.7 26.7 13.8 40 8.9 E 17 32 9 17 1012.9 1012.6 0.0
18/06:00pm 29.6 28.3 13.8 38 9.5 E 13 26 7 14 1012.4 1012.1 0.0
18/05:30pm 30.4 28.1 14.1 37 9.9 E 19 32 10 17 1011.8 1011.5 0.0

Other Formats:

Comma delimited format used in spreadsheet applications
http://www.bom.gov.au/fwo/IDQ60801/IDQ60801.94171.axf

JavaScript Object Notation format (JSON) in row-major order
http://www.bom.gov.au/fwo/IDQ60801/IDQ60801.94171.json